Regional Weather Roundup
Issued by NWS Portland, ME

Home | Current Version | Previous Version | Text Only | Print | Product List | Glossary On
Versions: 1 2 3 4 5 6 7 8 9 10 11 12 13 14 15 16 17 18 19 20 21 22 23 24 25 26 27 28 29 30 31 32 33 34 35 36 37 38 39 40 41 42 43 44 45 46 47 48 49 50
000
ASUS41 KGYX 070110
RWRGYX
WEATHER ROUNDUP FOR MAINE AND NEW HAMPSHIRE
NATIONAL WEATHER SERVICE GRAY ME
900 PM EDT WED MAY 06 2015

MEZ002-005-006-010-012-015-018-020-021-024-026-027-029-070200-
MAINE

CITY           SKY/WX    TMP DP  RH WIND       PRES   REMARKS
PORTLAND       CLEAR     59  36  42 CALM      30.14R
SANFORD        CLEAR     54  37  54 SW3       30.15R
BAR HARBOR     MOCLDY    55  37  50 SW8       30.10S
WISCASSET      CLEAR     55  38  52 CALM      30.15S
ROCKLAND       CLEAR     55  36  47 W8        30.12S
FRYEBURG       FAIR      54  38  54 SW3       30.14R
AUGUSTA        CLEAR     58  35  42 S7        30.13R
WATERVILLE     CLEAR     57  34  41 SW5       30.09R
BANGOR         MOCLDY    67  33  28 W5        30.09R
GREENVILLE       N/A     59  34  39 NW8       30.09R
MILLINOCKET    MOCLDY    64  35  34 W6        30.09R
HOULTON        CLEAR     57  34  41 NW5       30.04R
PRESQUE ISLE   CLEAR     57  28  33 NW14      30.04R
FRENCHVILLE    PTCLDY    52  28  39 NW8       30.02R
CARIBOU        CLEAR     54  24  31 W9        30.02R
$$

NHZ002-005-008-009-011-012-014-070200-
NEW HAMPSHIRE

CITY           SKY/WX    TMP DP  RH WIND       PRES   REMARKS
PORTSMOUTH     CLEAR     61  37  41 S5        30.13R
ROCHESTER      CLEAR     63  37  38 CALM      30.14R
NASHUA         CLEAR     67  35  30 VRB3      30.16R
MANCHESTER     CLEAR     68  32  26 S3        30.14R
CONCORD        CLEAR     63  33  32 CALM      30.14R
LACONIA        CLEAR     61  37  41 CALM      30.13R
PLYMOUTH       FAIR      56  47  71 CALM      30.15R
BERLIN         CLEAR     54  33  45 CALM      30.15R
WHITEFIELD     CLEAR     54  36  50 CALM      30.16R
JAFFREY        CLEAR     63  34  33 S5        30.20R
KEENE          CLEAR     61  36  39 CALM      30.18R
LEBANON        CLEAR     54  40  59 CALM      30.15R
MT WASHINGTON  PTCLDY    39  25  56 NW45        N/A
$$

VTZ005-007-008-070200-
VERMONT

CITY           SKY/WX    TMP DP  RH WIND       PRES   REMARKS
ST JOHNSBURY     N/A     63  35  35 MISG      30.14R
MONTPELIER     CLEAR     60  32  34 CALM      30.22R
BURLINGTON     CLEAR     64  36  35 S3        30.15S
$$

MAZ007-012-024-CTZ003-RIZ002-NYZ038-NYZ072-070200-
SOUTHERN NEW ENGLAND AND NY

CITY           SKY/WX    TMP DP  RH WIND       PRES   REMARKS
BOSTON         PTCLDY    63  31  30 SW16      30.19R
WORCESTER      CLEAR     63  33  32 SW13      30.21R
NANTUCKET      CLEAR     48  40  73 S3        30.22S
PROVIDENCE     PTCLDY    56  36  47 SW6       30.22S
HARTFORD       CLEAR     64  32  30 S12       30.21R
ALBANY         PTCLDY    68  35  29 S8        30.18R
NEW YORK CITY  PTCLDY    63  38  39 SE7       30.23R
$$

ANZ081-ANZ082-ANZ150-NHZ014-MEZ023>029-070200-
COASTAL MARINE OBSERVATIONS

STATION/POSITION TIME  TEMP    WIND        PRES    WAVE
                       AIR SEA DIR/SP/G            HT/PER
                 (UTC) (F)     (DEG/KT/KT) (MB)    (FT/S)
MOUNT DESERT ROC 0100   45     230/ 17/ 18   N/A
MATINICUS ROCK   0000   47     230/ 22/ 23   N/A
ISLE OF SHOALS   0000   58     190/ 20/ 22   N/A
JEFFREYS LEDGE   0003      48                N/A     3/ 8
CASHES LEDGE BUO 0050   49 45                N/A     3/ 7
GEORGES BANK BUO 0050   50 47   20/  4/  4   N/A     3/ 8
$$

.............KEY..............
   WCI - WIND CHILL
   TC  - TEMPERATURE IN CELSIUS
   VSB - VISIBILITY IN MILES
   HX  - HEAT INDEX
   FAIR- INDICATES FEW OR NO CLOUDS BELOW 12,000 FT, WITH NO
         SIGNIFICANT WEATHER AND/OR OBSTRUCTIONS TO VISIBILITY.




USA.gov is the U.S. government's official web portal to all federal, state and local government web resources and services.